Year,Month,Day,Hour,Minute,Value (Times are PST for temperature in C)
2009,01,21,00,00,-1.30
2009,01,21,00,01,-1.20
2009,01,21,00,02,-1.20
2009,01,21,00,03,-1.20
2009,01,21,00,04,-1.20
2009,01,21,00,05,-1.20
2009,01,21,00,06,-1.20
2009,01,21,00,07,-1.20
2009,01,21,00,08,-1.20
2009,01,21,00,09,-1.20
2009,01,21,00,10,-1.20
2009,01,21,00,11,-1.20
2009,01,21,00,12,-1.20
2009,01,21,00,13,-1.20
2009,01,21,00,14,-1.20
2009,01,21,00,15,-1.20
2009,01,21,00,16,-1.20
2009,01,21,00,17,-1.20
2009,01,21,00,18,-1.20
2009,01,21,00,19,-1.20
2009,01,21,00,20,-1.20
2009,01,21,00,21,-1.20
2009,01,21,00,22,-1.20
2009,01,21,00,23,-1.20
2009,01,21,00,24,-1.20
2009,01,21,00,25,-1.20
2009,01,21,00,26,-1.20
2009,01,21,00,27,-1.20
2009,01,21,00,28,-1.20
2009,01,21,00,29,-1.20
2009,01,21,00,30,-1.10
2009,01,21,00,31,-1.10
2009,01,21,00,32,-1.10
2009,01,21,00,33,-1.10
2009,01,21,00,34,-1.10
2009,01,21,00,35,-1.10
2009,01,21,00,36,-1.00
2009,01,21,00,37,-1.00
2009,01,21,00,38,-1.00
2009,01,21,00,39,-1.00
2009,01,21,00,40,-0.90
2009,01,21,00,41,-0.90
2009,01,21,00,42,-0.90
2009,01,21,00,43,-0.90
2009,01,21,00,44,-1.00
2009,01,21,00,45,-1.00
2009,01,21,00,46,-1.00
2009,01,21,00,47,-0.90
2009,01,21,00,48,-0.90
2009,01,21,00,49,-0.90
2009,01,21,00,50,-0.90
2009,01,21,00,51,-1.00
2009,01,21,00,52,-0.90
2009,01,21,00,53,-1.00
2009,01,21,00,54,-1.00
2009,01,21,00,55,-1.00
2009,01,21,00,56,-0.90
2009,01,21,00,57,-0.90
2009,01,21,00,58,-1.00
2009,01,21,00,59,-0.90
2009,01,21,01,00,-1.00
2009,01,21,01,01,-1.00
2009,01,21,01,02,-1.00
2009,01,21,01,03,-1.00
2009,01,21,01,04,-1.00
2009,01,21,01,05,-1.00
2009,01,21,01,06,-1.00
2009,01,21,01,07,-1.00
2009,01,21,01,08,-1.00
2009,01,21,01,09,-1.00
2009,01,21,01,10,-1.00
2009,01,21,01,11,-1.00
2009,01,21,01,12,-1.10
2009,01,21,01,13,-1.10
2009,01,21,01,14,-1.10
2009,01,21,01,15,-1.10
2009,01,21,01,16,-1.10
2009,01,21,01,17,-1.10
2009,01,21,01,18,-1.10
2009,01,21,01,19,-1.10
2009,01,21,01,20,-1.10
2009,01,21,01,21,-1.20
2009,01,21,01,22,-1.20
2009,01,21,01,23,-1.20
2009,01,21,01,24,-1.20
2009,01,21,01,25,-1.20
2009,01,21,01,26,-1.20
2009,01,21,01,27,-1.20
2009,01,21,01,28,-1.20
2009,01,21,01,29,-1.20
2009,01,21,01,30,-1.20
2009,01,21,01,31,-1.20
2009,01,21,01,32,-1.20
2009,01,21,01,33,-1.30
2009,01,21,01,34,-1.30
2009,01,21,01,35,-1.40
2009,01,21,01,36,-1.50
2009,01,21,01,37,-1.60
2009,01,21,01,38,-1.70
2009,01,21,01,39,-1.80
2009,01,21,01,40,-1.90
2009,01,21,01,41,-1.90
2009,01,21,01,42,-1.90
2009,01,21,01,43,-1.90
2009,01,21,01,44,-2.00
2009,01,21,01,45,-2.00
2009,01,21,01,46,-2.00
2009,01,21,01,47,-1.90
2009,01,21,01,48,-1.90
2009,01,21,01,49,-1.80
2009,01,21,01,50,-1.80
2009,01,21,01,51,-1.80
2009,01,21,01,52,-1.80
2009,01,21,01,53,-1.80
2009,01,21,01,54,-1.80
2009,01,21,01,55,-1.80
2009,01,21,01,56,-1.80
2009,01,21,01,57,-1.80
2009,01,21,01,58,-1.80
2009,01,21,01,59,-1.80
2009,01,21,02,00,-1.80
2009,01,21,02,01,-1.80
2009,01,21,02,02,-1.70
2009,01,21,02,03,-1.70
2009,01,21,02,04,-1.70
2009,01,21,02,05,-1.70
2009,01,21,02,06,-1.70
2009,01,21,02,07,-1.70
2009,01,21,02,08,-1.70
2009,01,21,02,09,-1.70
2009,01,21,02,10,-1.70
2009,01,21,02,11,-1.70
2009,01,21,02,12,-1.70
2009,01,21,02,13,-1.70
2009,01,21,02,14,-1.70
2009,01,21,02,15,-1.70
2009,01,21,02,16,-1.70
2009,01,21,02,17,-1.70
2009,01,21,02,18,-1.70
2009,01,21,02,19,-1.70
2009,01,21,02,20,-1.70
2009,01,21,02,21,-1.70
2009,01,21,02,22,-1.70
2009,01,21,02,23,-1.80
2009,01,21,02,24,-1.80
2009,01,21,02,25,-1.80
2009,01,21,02,26,-1.80
2009,01,21,02,27,-1.80
2009,01,21,02,28,-1.80
2009,01,21,02,29,-1.80
2009,01,21,02,30,-1.80
2009,01,21,02,31,-1.80
2009,01,21,02,32,-1.80
2009,01,21,02,33,-1.80
2009,01,21,02,34,-1.80
2009,01,21,02,35,-1.80
2009,01,21,02,36,-1.80
2009,01,21,02,37,-1.90
2009,01,21,02,38,-1.90
2009,01,21,02,39,-1.90
2009,01,21,02,40,-1.90
2009,01,21,02,41,-1.90
2009,01,21,02,42,-1.90
2009,01,21,02,43,-1.90
2009,01,21,02,44,-2.00
2009,01,21,02,45,-2.00
2009,01,21,02,46,-2.00
2009,01,21,02,47,-2.00
2009,01,21,02,48,-2.10
2009,01,21,02,49,-2.10
2009,01,21,02,50,-2.10
2009,01,21,02,51,-2.10
2009,01,21,02,52,-2.10
2009,01,21,02,53,-2.10
2009,01,21,02,54,-2.10
2009,01,21,02,55,-2.10
2009,01,21,02,56,-2.10
2009,01,21,02,57,-2.10
2009,01,21,02,58,-2.10
2009,01,21,02,59,-2.10
2009,01,21,03,00,-2.00
2009,01,21,03,01,-2.00
2009,01,21,03,02,-2.00
2009,01,21,03,03,-1.90
2009,01,21,03,04,-1.90
2009,01,21,03,05,-1.90
2009,01,21,03,06,-1.90
2009,01,21,03,07,-1.90
2009,01,21,03,08,-1.80
2009,01,21,03,09,-1.80
2009,01,21,03,10,-1.80
2009,01,21,03,11,-1.80
2009,01,21,03,12,-1.80
2009,01,21,03,13,-1.80
2009,01,21,03,14,-1.80
2009,01,21,03,15,-1.70
2009,01,21,03,16,-1.70
2009,01,21,03,17,-1.70
2009,01,21,03,18,-1.70
2009,01,21,03,19,-1.70
2009,01,21,03,20,-1.70
2009,01,21,03,21,-1.70
2009,01,21,03,22,-1.70
2009,01,21,03,23,-1.70
2009,01,21,03,24,-1.70
2009,01,21,03,25,-1.70
2009,01,21,03,26,-1.70
2009,01,21,03,27,-1.70
2009,01,21,03,28,-1.70
2009,01,21,03,29,-1.70
2009,01,21,03,30,-1.70
2009,01,21,03,31,-1.70
2009,01,21,03,32,-1.70
2009,01,21,03,33,-1.70
2009,01,21,03,34,-1.60
2009,01,21,03,35,-1.60
2009,01,21,03,36,-1.60
2009,01,21,03,37,-1.60
2009,01,21,03,38,-1.60
2009,01,21,03,39,-1.60
2009,01,21,03,40,-1.70
2009,01,21,03,41,-1.70
2009,01,21,03,42,-1.70
2009,01,21,03,43,-1.70
2009,01,21,03,44,-1.70
2009,01,21,03,45,-1.70
2009,01,21,03,46,-1.70
2009,01,21,03,47,-1.70
2009,01,21,03,48,-1.70
2009,01,21,03,49,-1.70
2009,01,21,03,50,-1.70
2009,01,21,03,51,-1.70
2009,01,21,03,52,-1.70
2009,01,21,03,53,-1.70
2009,01,21,03,54,-1.70
2009,01,21,03,55,-1.70
2009,01,21,03,56,-1.70
2009,01,21,03,57,-1.70
2009,01,21,03,58,-1.70
2009,01,21,03,59,-1.70
2009,01,21,04,00,-1.70
2009,01,21,04,01,-1.70
2009,01,21,04,02,-1.70
2009,01,21,04,03,-1.70
2009,01,21,04,04,-1.70
2009,01,21,04,05,-1.70
2009,01,21,04,06,-1.70
2009,01,21,04,07,-1.70
2009,01,21,04,08,-1.70
2009,01,21,04,09,-1.70
2009,01,21,04,10,-1.70
2009,01,21,04,11,-1.70
2009,01,21,04,12,-1.70
2009,01,21,04,13,-1.70
2009,01,21,04,14,-1.70
2009,01,21,04,15,-1.70
2009,01,21,04,16,-1.70
2009,01,21,04,17,-1.70
2009,01,21,04,18,-1.70
2009,01,21,04,19,-1.70
2009,01,21,04,20,-1.70
2009,01,21,04,21,-1.70
2009,01,21,04,22,-1.70
2009,01,21,04,23,-1.70
2009,01,21,04,24,-1.80
2009,01,21,04,25,-1.80
2009,01,21,04,26,-1.80
2009,01,21,04,27,-1.80
2009,01,21,04,28,-1.80
2009,01,21,04,29,-1.80
2009,01,21,04,30,-1.80
2009,01,21,04,31,-1.80
2009,01,21,04,32,-1.80
2009,01,21,04,33,-1.80
2009,01,21,04,34,-1.80
2009,01,21,04,35,-1.80
2009,01,21,04,36,-1.80
2009,01,21,04,37,-1.70
2009,01,21,04,38,-1.70
2009,01,21,04,39,-1.70
2009,01,21,04,40,-1.70
2009,01,21,04,41,-1.70
2009,01,21,04,42,-1.80
2009,01,21,04,43,-1.80
2009,01,21,04,44,-1.70
2009,01,21,04,45,-1.70
2009,01,21,04,46,-1.70
2009,01,21,04,47,-1.80
2009,01,21,04,48,-1.80
2009,01,21,04,49,-1.80
2009,01,21,04,50,-1.70
2009,01,21,04,51,-1.70
2009,01,21,04,52,-1.70
2009,01,21,04,53,-1.70
2009,01,21,04,54,-1.70
2009,01,21,04,55,-1.80
2009,01,21,04,56,-1.70
2009,01,21,04,57,-1.70
2009,01,21,04,58,-1.70
2009,01,21,04,59,-1.70
2009,01,21,05,00,-1.70
2009,01,21,05,01,-1.80
2009,01,21,05,02,-1.80
2009,01,21,05,03,-1.80
2009,01,21,05,04,-1.80
2009,01,21,05,05,-1.80
2009,01,21,05,06,-1.80
2009,01,21,05,07,-1.80
2009,01,21,05,08,-1.80
2009,01,21,05,09,-1.80
2009,01,21,05,10,-1.80
2009,01,21,05,11,-1.80
2009,01,21,05,12,-1.80
2009,01,21,05,13,-1.80
2009,01,21,05,14,-1.80
2009,01,21,05,15,-1.80
2009,01,21,05,16,-1.80
2009,01,21,05,17,-1.80
2009,01,21,05,18,-1.80
2009,01,21,05,19,-1.80
2009,01,21,05,20,-1.80
2009,01,21,05,21,-1.80
2009,01,21,05,22,-1.80
2009,01,21,05,23,-1.70
2009,01,21,05,24,-1.70
2009,01,21,05,25,-1.70
2009,01,21,05,26,-1.70
2009,01,21,05,27,-1.70
2009,01,21,05,28,-1.70
2009,01,21,05,29,-1.70
2009,01,21,05,30,-1.70
2009,01,21,05,31,-1.70
2009,01,21,05,32,-1.70
2009,01,21,05,33,-1.80
2009,01,21,05,34,-1.80
2009,01,21,05,35,-1.80
2009,01,21,05,36,-1.80
2009,01,21,05,37,-1.80
2009,01,21,05,38,-1.80
2009,01,21,05,39,-1.80
2009,01,21,05,40,-1.80
2009,01,21,05,41,-1.80
2009,01,21,05,42,-1.80
2009,01,21,05,43,-1.90
2009,01,21,05,44,-1.90
2009,01,21,05,45,-1.90
2009,01,21,05,46,-1.90
2009,01,21,05,47,-1.90
2009,01,21,05,48,-1.90
2009,01,21,05,49,-1.90
2009,01,21,05,50,-1.90
2009,01,21,05,51,-1.90
2009,01,21,05,52,-1.90
2009,01,21,05,53,-1.90
2009,01,21,05,54,-1.90
2009,01,21,05,55,-2.00
2009,01,21,05,56,-2.00
2009,01,21,05,57,-2.00
2009,01,21,05,58,-2.00
2009,01,21,05,59,-2.00
2009,01,21,06,00,-2.00
2009,01,21,06,01,-2.00
2009,01,21,06,02,-2.00
2009,01,21,06,03,-2.00
2009,01,21,06,04,-2.00
2009,01,21,06,05,-2.00
2009,01,21,06,06,-2.00
2009,01,21,06,07,-2.10
2009,01,21,06,08,-2.10
2009,01,21,06,09,-2.10
2009,01,21,06,10,-2.10
2009,01,21,06,11,-2.10
2009,01,21,06,12,-2.20
2009,01,21,06,13,-2.20
2009,01,21,06,14,-2.20
2009,01,21,06,15,-2.20
2009,01,21,06,16,-2.20
2009,01,21,06,17,-2.20
2009,01,21,06,18,-2.20
2009,01,21,06,19,-2.20
2009,01,21,06,20,-2.20
2009,01,21,06,21,-2.20
2009,01,21,06,22,-2.20
2009,01,21,06,23,-2.20
2009,01,21,06,24,-2.20
2009,01,21,06,25,-2.20
2009,01,21,06,26,-2.20
2009,01,21,06,27,-2.20
2009,01,21,06,28,-2.30
2009,01,21,06,29,-2.30
2009,01,21,06,30,-2.30
2009,01,21,06,31,-2.30
2009,01,21,06,32,-2.30
2009,01,21,06,33,-2.30
2009,01,21,06,34,-2.30
2009,01,21,06,35,-2.30
2009,01,21,06,36,-2.30
2009,01,21,06,37,-2.30
2009,01,21,06,38,-2.30
2009,01,21,06,39,-2.30
2009,01,21,06,40,-2.30
2009,01,21,06,41,-2.30
2009,01,21,06,42,-2.30
2009,01,21,06,43,-2.30
2009,01,21,06,44,-2.30
2009,01,21,06,45,-2.30
2009,01,21,06,46,-2.30
2009,01,21,06,47,-2.30
2009,01,21,06,48,-2.40
2009,01,21,06,49,-2.40
2009,01,21,06,50,-2.40
2009,01,21,06,51,-2.40
2009,01,21,06,52,-2.40
2009,01,21,06,53,-2.40
2009,01,21,06,54,-2.40
2009,01,21,06,55,-2.40
2009,01,21,06,56,-2.40
2009,01,21,06,57,-2.40
2009,01,21,06,58,-2.40
2009,01,21,06,59,-2.40
2009,01,21,07,00,-2.40
2009,01,21,07,01,-2.40
2009,01,21,07,02,-2.40
2009,01,21,07,03,-2.40
2009,01,21,07,04,-2.40
2009,01,21,07,05,-2.40
2009,01,21,07,06,-2.40
2009,01,21,07,07,-2.40
2009,01,21,07,08,-2.40
2009,01,21,07,09,-2.40
2009,01,21,07,10,-2.40
2009,01,21,07,11,-2.40
2009,01,21,07,12,-2.40
2009,01,21,07,13,-2.40
2009,01,21,07,14,-2.40
2009,01,21,07,15,-2.40
2009,01,21,07,16,-2.40
2009,01,21,07,17,-2.40
2009,01,21,07,18,-2.40
2009,01,21,07,19,-2.30
2009,01,21,07,20,-2.30
2009,01,21,07,21,-2.30
2009,01,21,07,22,-2.30
2009,01,21,07,23,-2.30
2009,01,21,07,24,-2.30
2009,01,21,07,25,-2.30
2009,01,21,07,26,-2.30
2009,01,21,07,27,-2.30
2009,01,21,07,28,-2.30
2009,01,21,07,29,-2.30
2009,01,21,07,30,-2.30
2009,01,21,07,31,-2.30
2009,01,21,07,32,-2.30
2009,01,21,07,33,-2.30
2009,01,21,07,34,-2.30
2009,01,21,07,35,-2.20
2009,01,21,07,36,-2.30
2009,01,21,07,37,-2.30
2009,01,21,07,38,-2.30
2009,01,21,07,39,-2.20
2009,01,21,07,40,-2.20
2009,01,21,07,41,-2.30
2009,01,21,07,42,-2.30
2009,01,21,07,43,-2.30
2009,01,21,07,44,-2.30
2009,01,21,07,45,-2.30
2009,01,21,07,46,-2.30
2009,01,21,07,47,-2.30
2009,01,21,07,48,-2.30
2009,01,21,07,49,-2.30
2009,01,21,07,50,-2.30
2009,01,21,07,51,-2.30
2009,01,21,07,52,-2.30
2009,01,21,07,53,-2.30
2009,01,21,07,54,-2.30
2009,01,21,07,55,-2.20
2009,01,21,07,56,-2.20
2009,01,21,07,57,-2.20
2009,01,21,07,58,-2.30
2009,01,21,07,59,-2.30
2009,01,21,08,00,-2.30
2009,01,21,08,01,-2.30
2009,01,21,08,02,-2.30
2009,01,21,08,03,-2.30
2009,01,21,08,04,-2.30
2009,01,21,08,05,-2.30
2009,01,21,08,06,-2.30
2009,01,21,08,07,-2.30
2009,01,21,08,08,-2.30
2009,01,21,08,09,-2.30
2009,01,21,08,10,-2.30
2009,01,21,08,11,-2.40
2009,01,21,08,12,-2.40
2009,01,21,08,13,-2.40
2009,01,21,08,14,-2.40
2009,01,21,08,15,-2.40
2009,01,21,08,16,-2.40
2009,01,21,08,17,-2.40
2009,01,21,08,18,-2.40
2009,01,21,08,19,-2.40
2009,01,21,08,20,-2.40
2009,01,21,08,21,-2.40
2009,01,21,08,22,-2.40
2009,01,21,08,23,-2.40
2009,01,21,08,24,-2.40
2009,01,21,08,25,-2.40
2009,01,21,08,26,-2.40
2009,01,21,08,27,-2.40
2009,01,21,08,28,-2.40
2009,01,21,08,29,-2.40
2009,01,21,08,30,-2.40
2009,01,21,08,31,-2.40
2009,01,21,08,32,-2.40
2009,01,21,08,33,-2.30
2009,01,21,08,34,-2.30
2009,01,21,08,35,-2.30
2009,01,21,08,36,-2.30
2009,01,21,08,37,-2.30
2009,01,21,08,38,-2.30
2009,01,21,08,39,-2.30
2009,01,21,08,40,-2.30
2009,01,21,08,41,-2.30
2009,01,21,08,42,-2.30
2009,01,21,08,43,-2.30
2009,01,21,08,44,-2.30
2009,01,21,08,45,-2.30
2009,01,21,08,46,-2.40
2009,01,21,08,47,-2.40
2009,01,21,08,48,-2.40
2009,01,21,08,49,-2.40
2009,01,21,08,50,-2.40
2009,01,21,08,51,-2.30
2009,01,21,08,52,-2.30
2009,01,21,08,53,-2.30
2009,01,21,08,54,-2.30
2009,01,21,08,55,-2.30
2009,01,21,08,56,-2.40
2009,01,21,08,57,-2.40
2009,01,21,08,58,-2.40
2009,01,21,08,59,-2.40
2009,01,21,09,00,-2.40
2009,01,21,09,01,-2.40
2009,01,21,09,02,-2.30
2009,01,21,09,03,-2.30
2009,01,21,09,04,-2.30
2009,01,21,09,05,-2.30
2009,01,21,09,06,-2.30
2009,01,21,09,07,-2.30
2009,01,21,09,08,-2.30
2009,01,21,09,09,-2.30
2009,01,21,09,10,-2.40
2009,01,21,09,11,-2.40
2009,01,21,09,12,-2.40
2009,01,21,09,13,-2.40
2009,01,21,09,14,-2.40
2009,01,21,09,15,-2.40
2009,01,21,09,16,-2.40
2009,01,21,09,17,-2.40
2009,01,21,09,18,-2.40
2009,01,21,09,19,-2.40
2009,01,21,09,20,-2.40
2009,01,21,09,21,-2.40
2009,01,21,09,22,-2.30
2009,01,21,09,23,-2.30
2009,01,21,09,24,-2.30
2009,01,21,09,25,-2.30
2009,01,21,09,26,-2.30
2009,01,21,09,27,-2.30
2009,01,21,09,28,-2.40
2009,01,21,09,29,-2.40
2009,01,21,09,30,-2.40
2009,01,21,09,31,-2.40
2009,01,21,09,32,-2.40
2009,01,21,09,33,-2.40
2009,01,21,09,34,-2.40
2009,01,21,09,35,-2.40
2009,01,21,09,36,-2.40
2009,01,21,09,37,-2.40
2009,01,21,09,38,-2.40
2009,01,21,09,39,-2.40
2009,01,21,09,40,-2.40
2009,01,21,09,41,-2.40
2009,01,21,09,42,-2.40
2009,01,21,09,43,-2.40
2009,01,21,09,44,-2.40
2009,01,21,09,45,-2.40
2009,01,21,09,46,-2.40
2009,01,21,09,47,-2.40
2009,01,21,09,48,-2.40
2009,01,21,09,49,-2.40
2009,01,21,09,50,-2.40
2009,01,21,09,51,-2.40
2009,01,21,09,52,-2.40
2009,01,21,09,53,-2.40
2009,01,21,09,54,-2.40
2009,01,21,09,55,-2.40
2009,01,21,09,56,-2.40
2009,01,21,09,57,-2.40
2009,01,21,09,58,-2.40
2009,01,21,09,59,-2.30
2009,01,21,10,00,-2.30
2009,01,21,10,01,-2.30
2009,01,21,10,02,-2.30
2009,01,21,10,03,-2.30
2009,01,21,10,04,-2.30
2009,01,21,10,05,-2.30
2009,01,21,10,06,-2.30
2009,01,21,10,07,-2.30
2009,01,21,10,08,-2.30
2009,01,21,10,09,-2.20
2009,01,21,10,10,-2.20
2009,01,21,10,11,-2.20
2009,01,21,10,12,-2.20
2009,01,21,10,13,-2.20
2009,01,21,10,14,-2.20
2009,01,21,10,15,-2.20
2009,01,21,10,16,-2.20
2009,01,21,10,17,-2.10
2009,01,21,10,18,-2.10
2009,01,21,10,19,-2.10
2009,01,21,10,20,-2.10
2009,01,21,10,21,-2.10
2009,01,21,10,22,-2.10
2009,01,21,10,23,-2.10
2009,01,21,10,24,-2.20
2009,01,21,10,25,-2.20
2009,01,21,10,26,-2.10
2009,01,21,10,27,-2.10
2009,01,21,10,28,-2.10
2009,01,21,10,29,-2.10
2009,01,21,10,30,-2.10
2009,01,21,10,31,-2.00
2009,01,21,10,32,-2.00
2009,01,21,10,33,-2.00
2009,01,21,10,34,-1.90
2009,01,21,10,35,-1.90
2009,01,21,10,36,-1.90
2009,01,21,10,37,-1.80
2009,01,21,10,38,-1.90
2009,01,21,10,39,-1.90
2009,01,21,10,40,-1.90
2009,01,21,10,41,-2.00
2009,01,21,10,42,-2.00
2009,01,21,10,43,-2.00
2009,01,21,10,44,-1.90
2009,01,21,10,45,-1.90
2009,01,21,10,46,-1.90
2009,01,21,10,47,-1.90
2009,01,21,10,48,-1.90
2009,01,21,10,49,-1.90
2009,01,21,10,50,-1.90
2009,01,21,10,51,-2.00
2009,01,21,10,52,-2.00
2009,01,21,10,53,-2.10
2009,01,21,10,54,-2.10
2009,01,21,10,55,-2.00
2009,01,21,10,56,-2.00
2009,01,21,10,57,-2.00
2009,01,21,10,58,-2.00
2009,01,21,10,59,-2.00
2009,01,21,11,00,-2.10
2009,01,21,11,01,-2.10
2009,01,21,11,02,-2.20
2009,01,21,11,03,-2.20
2009,01,21,11,04,-2.20
2009,01,21,11,05,-2.20
2009,01,21,11,06,-2.20
2009,01,21,11,07,-2.20
2009,01,21,11,08,-2.20
2009,01,21,11,09,-2.20
2009,01,21,11,10,-2.10
2009,01,21,11,11,-2.10
2009,01,21,11,12,-2.10
2009,01,21,11,13,-2.10
2009,01,21,11,14,-2.00
2009,01,21,11,15,-2.00
2009,01,21,11,16,-1.90
2009,01,21,11,17,-1.90
2009,01,21,11,18,-1.90
2009,01,21,11,19,-1.90
2009,01,21,11,20,-1.90
2009,01,21,11,21,-1.90
2009,01,21,11,22,-1.90
2009,01,21,11,23,-1.90
2009,01,21,11,24,-1.90
2009,01,21,11,25,-1.80
2009,01,21,11,26,-1.80
2009,01,21,11,27,-1.90
2009,01,21,11,28,-1.80
2009,01,21,11,29,-1.90
2009,01,21,11,30,-1.80
2009,01,21,11,31,-1.80
2009,01,21,11,32,-1.80
2009,01,21,11,33,-1.80
2009,01,21,11,34,-1.70
2009,01,21,11,35,-1.70
2009,01,21,11,36,-1.70
2009,01,21,11,37,-1.60
2009,01,21,11,38,-1.60
2009,01,21,11,39,-1.50
2009,01,21,11,40,-1.50
2009,01,21,11,41,-1.40
2009,01,21,11,42,-1.40
2009,01,21,11,43,-1.30
2009,01,21,11,44,-1.20
2009,01,21,11,45,-1.20
2009,01,21,11,46,-1.10
2009,01,21,11,47,-1.10
2009,01,21,11,48,-1.10
2009,01,21,11,49,-1.00
2009,01,21,11,50,-1.00
2009,01,21,11,51,-1.00
2009,01,21,11,52,-1.00
2009,01,21,11,53,-0.90
2009,01,21,11,54,-0.90
2009,01,21,11,55,-0.90
2009,01,21,11,56,-0.90
2009,01,21,11,57,-0.90
2009,01,21,11,58,-0.80
2009,01,21,11,59,-0.80
2009,01,21,12,00,-0.80
2009,01,21,12,01,-0.80
2009,01,21,12,02,-0.80
2009,01,21,12,03,-0.80
2009,01,21,12,04,-0.80
2009,01,21,12,05,-0.80
2009,01,21,12,06,-0.80
2009,01,21,12,07,-0.80
2009,01,21,12,08,-0.80
2009,01,21,12,09,-0.80
2009,01,21,12,10,-0.80
2009,01,21,12,11,-0.80
2009,01,21,12,12,-0.80
2009,01,21,12,13,-0.80
2009,01,21,12,14,-0.80
2009,01,21,12,15,-0.80
2009,01,21,12,16,-0.90
2009,01,21,12,17,-0.90
2009,01,21,12,18,-0.90
2009,01,21,12,19,-0.90
2009,01,21,12,20,-0.90
2009,01,21,12,21,-0.90
2009,01,21,12,22,-0.90
2009,01,21,12,23,-0.90
2009,01,21,12,24,-1.00
2009,01,21,12,25,-1.00
2009,01,21,12,26,-1.00
2009,01,21,12,27,-1.00
2009,01,21,12,28,-1.00
2009,01,21,12,29,-1.00
2009,01,21,12,30,-1.10
2009,01,21,12,31,-1.10
2009,01,21,12,32,-1.10
2009,01,21,12,33,-1.10
2009,01,21,12,34,-1.10
2009,01,21,12,35,-1.10
2009,01,21,12,36,-1.10
2009,01,21,12,37,-1.10
2009,01,21,12,38,-1.10
2009,01,21,12,39,-1.10
2009,01,21,12,40,-1.10
2009,01,21,12,41,-1.10
2009,01,21,12,42,-1.20
2009,01,21,12,43,-1.20
2009,01,21,12,44,-1.20
2009,01,21,12,45,-1.20
2009,01,21,12,46,-1.20
2009,01,21,12,47,-1.20
2009,01,21,12,48,-1.20
2009,01,21,12,49,-1.20
2009,01,21,12,50,-1.20
2009,01,21,12,51,-1.20
2009,01,21,12,52,-1.20
2009,01,21,12,53,-1.20
2009,01,21,12,54,-1.10
2009,01,21,12,55,-1.10
2009,01,21,12,56,-1.10
2009,01,21,12,57,-1.10
2009,01,21,12,58,-1.10
2009,01,21,12,59,-1.10
2009,01,21,13,00,-1.10
2009,01,21,13,01,-1.00
2009,01,21,13,02,-1.00
2009,01,21,13,03,-1.00
2009,01,21,13,04,-1.00
2009,01,21,13,05,-0.90
2009,01,21,13,06,-0.90
2009,01,21,13,07,-0.90
2009,01,21,13,08,-0.90
2009,01,21,13,09,-0.90
2009,01,21,13,10,-0.90
2009,01,21,13,11,-0.90
2009,01,21,13,12,-0.90
2009,01,21,13,13,-0.90
2009,01,21,13,14,-0.90
2009,01,21,13,15,-0.80
2009,01,21,13,16,-0.80
2009,01,21,13,17,-0.80
2009,01,21,13,18,-0.80
2009,01,21,13,19,-0.80
2009,01,21,13,20,-0.80
2009,01,21,13,21,-0.80
2009,01,21,13,22,-0.70
2009,01,21,13,23,-0.70
2009,01,21,13,24,-0.70
2009,01,21,13,25,-0.70
2009,01,21,13,26,-0.70
2009,01,21,13,27,-0.70
2009,01,21,13,28,-0.70
2009,01,21,13,29,-0.70
2009,01,21,13,30,-0.60
2009,01,21,13,31,-0.60
2009,01,21,13,32,-0.60
2009,01,21,13,33,-0.60
2009,01,21,13,34,-0.60
2009,01,21,13,35,-0.60
2009,01,21,13,36,-0.60
2009,01,21,13,37,-0.60
2009,01,21,13,38,-0.60
2009,01,21,13,39,-0.60
2009,01,21,13,40,-0.60
2009,01,21,13,41,-0.50
2009,01,21,13,42,-0.50
2009,01,21,13,43,-0.40
2009,01,21,13,44,-0.40
2009,01,21,13,45,-0.30
2009,01,21,13,46,-0.30
2009,01,21,13,47,-0.30
2009,01,21,13,48,-0.20
2009,01,21,13,49,-0.20
2009,01,21,13,50,-0.10
2009,01,21,13,51,-0.10
2009,01,21,13,52,-0.10
2009,01,21,13,53,-0.10
2009,01,21,13,54,0.00
2009,01,21,13,55,0.10
2009,01,21,13,56,0.20
2009,01,21,13,57,0.20
2009,01,21,13,58,0.30
2009,01,21,13,59,0.40
2009,01,21,14,00,0.50
2009,01,21,14,01,0.50
2009,01,21,14,02,0.50
2009,01,21,14,03,0.50
2009,01,21,14,04,0.60
2009,01,21,14,05,0.60
2009,01,21,14,06,0.60
2009,01,21,14,07,0.60
2009,01,21,14,08,0.60
2009,01,21,14,09,0.60
2009,01,21,14,10,0.50
2009,01,21,14,11,0.40
2009,01,21,14,12,0.30
2009,01,21,14,13,0.20
2009,01,21,14,14,0.20
2009,01,21,14,15,0.10
2009,01,21,14,16,0.00
2009,01,21,14,17,0.00
2009,01,21,14,18,-0.10
2009,01,21,14,19,-0.10
2009,01,21,14,20,-0.20
2009,01,21,14,21,-0.20
2009,01,21,14,22,-0.30
2009,01,21,14,23,-0.30
2009,01,21,14,24,-0.30
2009,01,21,14,25,-0.30
2009,01,21,14,26,-0.30
2009,01,21,14,27,-0.30
2009,01,21,14,28,-0.30
2009,01,21,14,29,-0.30
2009,01,21,14,30,-0.30
2009,01,21,14,31,-0.30
2009,01,21,14,32,-0.30
2009,01,21,14,33,-0.20
2009,01,21,14,34,-0.30
2009,01,21,14,35,-0.30
2009,01,21,14,36,-0.30
2009,01,21,14,37,-0.30
2009,01,21,14,38,-0.30
2009,01,21,14,39,-0.30
2009,01,21,14,40,-0.30
2009,01,21,14,41,-0.40
2009,01,21,14,42,-0.40
2009,01,21,14,43,-0.30
2009,01,21,14,44,-0.30
2009,01,21,14,45,-0.40
2009,01,21,14,46,-0.40
2009,01,21,14,47,-0.40
2009,01,21,14,48,-0.40
2009,01,21,14,49,-0.40
2009,01,21,14,50,-0.40
2009,01,21,14,51,-0.30
2009,01,21,14,52,-0.30
2009,01,21,14,53,-0.30
2009,01,21,14,54,-0.30
2009,01,21,14,55,-0.30
2009,01,21,14,56,-0.30
2009,01,21,14,57,-0.30
2009,01,21,14,58,-0.20
2009,01,21,14,59,-0.20
2009,01,21,15,00,-0.20
2009,01,21,15,01,-0.20
2009,01,21,15,02,-0.20
2009,01,21,15,03,-0.20
2009,01,21,15,04,-0.20
2009,01,21,15,05,-0.20
2009,01,21,15,06,-0.20
2009,01,21,15,07,-0.10
2009,01,21,15,08,-0.10
2009,01,21,15,09,0.00
2009,01,21,15,10,0.00
2009,01,21,15,11,0.00
2009,01,21,15,12,-0.10
2009,01,21,15,13,-0.10
2009,01,21,15,14,-0.10
2009,01,21,15,15,-0.10
2009,01,21,15,16,-0.10
2009,01,21,15,17,-0.10
2009,01,21,15,18,-0.10
2009,01,21,15,19,0.00
2009,01,21,15,20,0.00
2009,01,21,15,21,0.10
2009,01,21,15,22,0.10
2009,01,21,15,23,0.10
2009,01,21,15,24,0.20
2009,01,21,15,25,0.20
2009,01,21,15,26,0.20
2009,01,21,15,27,0.30
2009,01,21,15,28,0.30
2009,01,21,15,29,0.30
2009,01,21,15,30,0.30
2009,01,21,15,31,0.30
2009,01,21,15,32,0.30
2009,01,21,15,33,0.30
2009,01,21,15,34,0.30
2009,01,21,15,35,0.30
2009,01,21,15,36,0.30
2009,01,21,15,37,0.30
2009,01,21,15,38,0.30
2009,01,21,15,39,0.20
2009,01,21,15,40,0.20
2009,01,21,15,41,0.20
2009,01,21,15,42,0.20
2009,01,21,15,43,0.20
2009,01,21,15,44,0.10
2009,01,21,15,45,0.10
2009,01,21,15,46,0.10
2009,01,21,15,47,0.10
2009,01,21,15,48,0.10
2009,01,21,15,49,0.00
2009,01,21,15,50,0.00
2009,01,21,15,51,0.00
2009,01,21,15,52,-0.10
2009,01,21,15,53,-0.10
2009,01,21,15,54,-0.20
2009,01,21,15,55,-0.20
2009,01,21,15,56,-0.30
2009,01,21,15,57,-0.30
2009,01,21,15,58,-0.30
2009,01,21,15,59,-0.30
2009,01,21,16,00,-0.30
2009,01,21,16,01,-0.30
2009,01,21,16,02,-0.30
2009,01,21,16,03,-0.40
2009,01,21,16,04,-0.40
2009,01,21,16,05,-0.40
2009,01,21,16,06,-0.50
2009,01,21,16,07,-0.50
2009,01,21,16,08,-0.50
2009,01,21,16,09,-0.50
2009,01,21,16,10,-0.50
2009,01,21,16,11,-0.50
2009,01,21,16,12,-0.60
2009,01,21,16,13,-0.60
2009,01,21,16,14,-0.60
2009,01,21,16,15,-0.70
2009,01,21,16,16,-0.70
2009,01,21,16,17,-0.70
2009,01,21,16,18,-0.70
2009,01,21,16,19,-0.70
2009,01,21,16,20,-0.70
2009,01,21,16,21,-0.70
2009,01,21,16,22,-0.80
2009,01,21,16,23,-0.80
2009,01,21,16,24,-0.80
2009,01,21,16,25,-0.80
2009,01,21,16,26,-0.80
2009,01,21,16,27,-0.80
2009,01,21,16,28,-0.80
2009,01,21,16,29,-0.80
2009,01,21,16,30,-0.90
2009,01,21,16,31,-0.90
2009,01,21,16,32,-0.80
2009,01,21,16,33,-0.80
2009,01,21,16,34,-0.80
2009,01,21,16,35,-0.80
2009,01,21,16,36,-0.90
2009,01,21,16,37,-0.80
2009,01,21,16,38,-0.80
2009,01,21,16,39,-0.80
2009,01,21,16,40,-0.80
2009,01,21,16,41,-0.80
2009,01,21,16,42,-0.80
2009,01,21,16,43,-0.80
2009,01,21,16,44,-0.80
2009,01,21,16,45,-0.80
2009,01,21,16,46,-0.70
2009,01,21,16,47,-0.70
2009,01,21,16,48,-0.70
2009,01,21,16,49,-0.70
2009,01,21,16,50,-0.70
2009,01,21,16,51,-0.70
2009,01,21,16,52,-0.70
2009,01,21,16,53,-0.60
2009,01,21,16,54,-0.60
2009,01,21,16,55,-0.60
2009,01,21,16,56,-0.60
2009,01,21,16,57,-0.60
2009,01,21,16,58,-0.60
2009,01,21,16,59,-0.50
2009,01,21,17,00,-0.50
2009,01,21,17,01,-0.50
2009,01,21,17,02,-0.50
2009,01,21,17,03,-0.50
2009,01,21,17,04,-0.50
2009,01,21,17,05,-0.50
2009,01,21,17,06,-0.50
2009,01,21,17,07,-0.50
2009,01,21,17,08,-0.50
2009,01,21,17,09,-0.50
2009,01,21,17,10,-0.60
2009,01,21,17,11,-0.60
2009,01,21,17,12,-0.60
2009,01,21,17,13,-0.60
2009,01,21,17,14,-0.60
2009,01,21,17,15,-0.70
2009,01,21,17,16,-0.70
2009,01,21,17,17,-0.70
2009,01,21,17,18,-0.70
2009,01,21,17,19,-0.60
2009,01,21,17,20,-0.60
2009,01,21,17,21,-0.60
2009,01,21,17,22,-0.60